Time,TemperatureF,DewpointF,PressureIn,WindDirection,WindDirectionDegrees,WindSpeedMPH,WindSpeedGustMPH,Humidity,HourlyPrecipIn,Conditions,Clouds,dailyrainin,SolarRadiationWatts/m^2,SoftwareType,DateUTC
2013-05-07 00:00:00,56.7,56.7,29.77,North,32767,-999.0,0.0,100,0.00,,,0.92,0,Wunderground v.1.15,2013-05-07 04:00:00,
2013-05-07 00:05:00,56.6,56.6,29.77,North,32767,-999.0,0.0,100,0.00,,,0.00,0,Wunderground v.1.15,2013-05-07 04:05:00,
2013-05-07 00:10:00,56.5,56.5,29.77,North,32767,-999.0,0.0,100,0.00,,,0.00,0,Wunderground v.1.15,2013-05-07 04:10:00,
2013-05-07 00:20:00,56.0,56.0,29.77,North,32767,-999.0,0.0,100,0.00,,,0.00,0,Wunderground v.1.15,2013-05-07 04:20:00,
2013-05-07 00:25:00,56.0,56.0,29.77,North,32767,-999.0,0.0,100,0.00,,,0.00,0,Wunderground v.1.15,2013-05-07 04:25:00,
2013-05-07 00:30:00,55.9,55.9,29.77,North,32767,-999.0,0.0,100,0.00,,,0.00,0,Wunderground v.1.15,2013-05-07 04:30:00,
2013-05-07 00:35:00,55.7,55.7,29.77,North,32767,-999.0,0.0,100,0.00,,,0.00,0,Wunderground v.1.15,2013-05-07 04:35:00,
2013-05-07 00:40:00,55.6,55.6,29.77,North,32767,-999.0,0.0,100,0.00,,,0.00,0,Wunderground v.1.15,2013-05-07 04:40:00,
2013-05-07 00:44:00,55.4,55.4,29.77,North,32767,-999.0,0.0,100,0.00,,,0.00,0,Wunderground v.1.15,2013-05-07 04:44:00,
2013-05-07 00:50:00,55.3,55.3,29.77,North,32767,-999.0,0.0,100,0.00,,,0.00,0,Wunderground v.1.15,2013-05-07 04:50:00,
2013-05-07 00:55:00,55.1,55.1,29.77,North,32767,-999.0,0.0,100,0.00,,,0.00,0,Wunderground v.1.15,2013-05-07 04:55:00,
2013-05-07 01:05:00,55.1,55.1,29.77,North,32767,-999.0,0.0,100,0.00,,,0.00,0,Wunderground v.1.15,2013-05-07 05:05:00,
2013-05-07 01:10:00,55.1,55.1,29.77,North,32767,-999.0,0.0,100,0.00,,,0.00,0,Wunderground v.1.15,2013-05-07 05:10:00,
2013-05-07 01:15:00,55.1,55.1,29.77,North,32767,-999.0,0.0,100,0.00,,,0.00,0,Wunderground v.1.15,2013-05-07 05:15:00,
2013-05-07 01:20:00,55.1,55.1,29.77,North,32767,-999.0,0.0,100,0.00,,,0.00,0,Wunderground v.1.15,2013-05-07 05:20:00,
2013-05-07 01:30:00,55.0,55.0,29.77,North,32767,-999.0,0.0,100,0.00,,,0.00,0,Wunderground v.1.15,2013-05-07 05:30:00,
2013-05-07 01:35:00,54.8,54.8,29.77,North,32767,-999.0,0.0,100,0.00,,,0.00,0,Wunderground v.1.15,2013-05-07 05:35:00,
2013-05-07 01:40:00,54.7,54.7,29.77,North,32767,-999.0,0.0,100,0.00,,,0.00,0,Wunderground v.1.15,2013-05-07 05:40:00,
2013-05-07 01:50:00,54.5,54.5,29.76,North,32767,-999.0,0.0,100,0.00,,,0.00,0,Wunderground v.1.15,2013-05-07 05:50:00,
2013-05-07 01:55:00,54.4,54.4,29.76,North,32767,-999.0,0.0,100,0.00,,,0.00,0,Wunderground v.1.15,2013-05-07 05:55:00,
2013-05-07 02:00:00,54.2,54.2,29.76,North,32767,-999.0,0.0,100,0.00,,,0.00,0,Wunderground v.1.15,2013-05-07 06:00:00,
2013-05-07 02:10:00,53.9,53.9,29.75,North,32767,-999.0,0.0,100,0.00,,,0.00,0,Wunderground v.1.15,2013-05-07 06:10:00,
2013-05-07 02:20:00,53.6,53.6,29.75,North,32767,-999.0,0.0,100,0.00,,,0.00,0,Wunderground v.1.15,2013-05-07 06:20:00,
2013-05-07 02:25:00,53.6,53.6,29.75,North,32767,-999.0,0.0,100,0.00,,,0.00,0,Wunderground v.1.15,2013-05-07 06:25:00,
2013-05-07 02:30:00,53.6,53.6,29.75,North,32767,-999.0,0.0,100,0.00,,,0.00,0,Wunderground v.1.15,2013-05-07 06:30:00,
2013-05-07 02:40:00,53.5,53.5,29.75,North,32767,-999.0,0.0,100,0.00,,,0.00,0,Wunderground v.1.15,2013-05-07 06:40:00,
2013-05-07 02:45:00,53.5,53.5,29.75,North,32767,-999.0,0.0,100,0.00,,,0.00,0,Wunderground v.1.15,2013-05-07 06:45:00,
2013-05-07 02:50:00,53.5,53.5,29.75,North,32767,-999.0,0.0,100,0.00,,,0.00,0,Wunderground v.1.15,2013-05-07 06:50:00,
2013-05-07 03:00:00,53.5,53.5,29.75,North,32767,-999.0,0.0,100,0.00,,,0.00,0,Wunderground v.1.15,2013-05-07 07:00:00,
2013-05-07 03:05:00,53.5,53.5,29.74,North,32767,-999.0,0.0,100,0.00,,,0.00,0,Wunderground v.1.15,2013-05-07 07:05:00,
2013-05-07 03:15:00,53.6,53.6,29.74,North,32767,-999.0,0.0,100,0.00,,,0.00,0,Wunderground v.1.15,2013-05-07 07:15:00,
2013-05-07 03:25:00,53.5,53.5,29.74,North,32767,-999.0,0.0,100,0.00,,,0.00,0,Wunderground v.1.15,2013-05-07 07:25:00,
2013-05-07 03:30:00,53.5,53.5,29.74,North,32767,-999.0,0.0,100,0.00,,,0.00,0,Wunderground v.1.15,2013-05-07 07:30:00,
2013-05-07 03:35:00,53.5,53.5,29.74,North,32767,-999.0,0.0,100,0.00,,,0.00,0,Wunderground v.1.15,2013-05-07 07:35:00,
2013-05-07 03:40:00,53.3,53.3,29.74,North,32767,-999.0,0.0,100,0.00,,,0.00,0,Wunderground v.1.15,2013-05-07 07:40:00,
2013-05-07 03:50:00,53.2,53.2,29.74,North,32767,-999.0,0.0,100,0.00,,,0.00,0,Wunderground v.1.15,2013-05-07 07:50:00,
2013-05-07 03:55:00,53.1,53.1,29.74,North,32767,-999.0,0.0,100,0.00,,,0.00,0,Wunderground v.1.15,2013-05-07 07:55:00,
2013-05-07 04:00:00,52.9,52.9,29.74,North,32767,-999.0,0.0,100,0.00,,,0.00,0,Wunderground v.1.15,2013-05-07 08:00:00,
2013-05-07 04:10:00,52.6,52.6,29.74,North,32767,-999.0,0.0,100,0.00,,,0.00,0,Wunderground v.1.15,2013-05-07 08:10:00,
2013-05-07 04:20:00,52.3,52.3,29.74,North,32767,-999.0,0.0,100,0.00,,,0.00,0,Wunderground v.1.15,2013-05-07 08:20:00,
2013-05-07 04:30:00,52.2,52.2,29.74,North,32767,-999.0,0.0,100,0.00,,,0.00,0,Wunderground v.1.15,2013-05-07 08:30:00,
2013-05-07 04:35:00,52.2,52.2,29.74,North,32767,-999.0,0.0,100,0.00,,,0.00,0,Wunderground v.1.15,2013-05-07 08:35:00,
2013-05-07 04:40:00,52.0,52.0,29.74,North,32767,-999.0,0.0,100,0.00,,,0.00,0,Wunderground v.1.15,2013-05-07 08:40:00,
2013-05-07 04:50:00,51.9,51.9,29.74,North,32767,-999.0,0.0,100,0.00,,,0.00,0,Wunderground v.1.15,2013-05-07 08:50:00,
2013-05-07 05:00:00,52.0,52.0,29.74,North,32767,-999.0,0.0,100,0.00,,,0.00,0,Wunderground v.1.15,2013-05-07 09:00:00,
2013-05-07 05:05:00,52.2,52.2,29.74,North,32767,-999.0,0.0,100,0.00,,,0.00,0,Wunderground v.1.15,2013-05-07 09:05:00,
2013-05-07 05:10:00,52.0,52.0,29.74,North,32767,-999.0,0.0,100,0.00,,,0.00,0,Wunderground v.1.15,2013-05-07 09:10:00,
2013-05-07 05:15:00,51.9,51.9,29.74,North,32767,-999.0,0.0,100,0.00,,,0.00,0,Wunderground v.1.15,2013-05-07 09:15:00,
2013-05-07 05:20:00,51.9,51.9,29.74,North,32767,-999.0,0.0,100,0.00,,,0.00,0,Wunderground v.1.15,2013-05-07 09:20:00,
2013-05-07 05:25:00,52.0,52.0,29.74,North,32767,-999.0,0.0,100,0.00,,,0.00,0,Wunderground v.1.15,2013-05-07 09:25:00,
2013-05-07 05:30:00,52.3,52.3,29.74,North,32767,-999.0,0.0,100,0.00,,,0.00,0,Wunderground v.1.15,2013-05-07 09:30:00,
2013-05-07 05:40:00,52.3,52.3,29.74,North,32767,-999.0,0.0,100,0.00,,,0.00,0,Wunderground v.1.15,2013-05-07 09:40:00,
2013-05-07 05:45:00,52.3,52.3,29.74,North,32767,-999.0,0.0,100,0.00,,,0.00,0,Wunderground v.1.15,2013-05-07 09:45:00,
2013-05-07 05:50:00,52.3,52.3,29.75,North,32767,-999.0,0.0,100,0.00,,,0.00,0,Wunderground v.1.15,2013-05-07 09:50:00,
2013-05-07 06:00:00,52.6,52.6,29.75,North,32767,-999.0,0.0,100,0.00,,,0.00,0,Wunderground v.1.15,2013-05-07 10:00:00,
2013-05-07 06:05:00,52.6,52.6,29.75,North,32767,-999.0,0.0,100,0.00,,,0.00,0,Wunderground v.1.15,2013-05-07 10:05:00,
2013-05-07 06:10:00,52.6,52.6,29.75,North,32767,-999.0,0.0,100,0.00,,,0.00,0,Wunderground v.1.15,2013-05-07 10:10:00,
2013-05-07 06:20:00,52.8,52.8,29.75,North,32767,-999.0,0.0,100,0.00,,,0.00,0,Wunderground v.1.15,2013-05-07 10:20:00,
2013-05-07 06:25:00,52.9,52.9,29.75,North,32767,-999.0,0.0,100,0.00,,,0.00,0,Wunderground v.1.15,2013-05-07 10:25:00,
2013-05-07 06:30:00,52.9,52.9,29.75,North,32767,-999.0,0.0,100,0.00,,,0.00,0,Wunderground v.1.15,2013-05-07 10:30:00,
2013-05-07 06:40:00,53.1,53.1,29.75,North,32767,-999.0,0.0,100,0.00,,,0.00,5,Wunderground v.1.15,2013-05-07 10:40:00,
2013-05-07 06:50:00,52.6,52.6,29.75,North,32767,-999.0,0.0,100,0.00,,,0.00,9,Wunderground v.1.15,2013-05-07 10:50:00,
2013-05-07 06:55:00,52.6,52.6,29.75,North,32767,-999.0,0.0,100,0.00,,,0.00,14,Wunderground v.1.15,2013-05-07 10:55:00,
2013-05-07 07:05:00,52.8,52.8,29.76,North,32767,-999.0,0.0,100,0.00,,,0.00,18,Wunderground v.1.15,2013-05-07 11:05:00,
2013-05-07 07:10:00,53.1,53.1,29.76,North,32767,-999.0,0.0,100,0.00,,,0.00,25,Wunderground v.1.15,2013-05-07 11:10:00,
2013-05-07 07:20:00,53.3,53.3,29.77,North,32767,-999.0,0.0,100,0.00,,,0.00,9,Wunderground v.1.15,2013-05-07 11:20:00,
2013-05-07 07:30:00,53.1,53.1,29.77,North,32767,-999.0,0.0,100,0.00,,,0.00,12,Wunderground v.1.15,2013-05-07 11:30:00,
2013-05-07 07:40:00,52.9,52.9,29.77,North,32767,-999.0,0.0,100,0.00,,,0.00,35,Wunderground v.1.15,2013-05-07 11:40:00,
2013-05-07 07:45:00,52.9,52.9,29.77,North,32767,-999.0,0.0,100,0.00,,,0.00,30,Wunderground v.1.15,2013-05-07 11:45:00,
2013-05-07 07:50:00,52.9,52.9,29.77,North,32767,-999.0,0.0,100,0.00,,,0.00,18,Wunderground v.1.15,2013-05-07 11:50:00,
2013-05-07 08:00:00,53.2,53.2,29.77,North,32767,-999.0,0.0,100,0.00,,,0.00,40,Wunderground v.1.15,2013-05-07 12:00:00,
2013-05-07 08:10:00,53.5,53.5,29.77,North,32767,-999.0,0.0,100,0.00,,,0.00,60,Wunderground v.1.15,2013-05-07 12:10:00,
2013-05-07 08:15:00,53.5,53.5,29.77,North,32767,-999.0,0.0,100,0.00,,,0.00,35,Wunderground v.1.15,2013-05-07 12:15:00,
2013-05-07 08:20:00,53.6,53.6,29.78,North,32767,-999.0,0.0,100,0.00,,,0.00,25,Wunderground v.1.15,2013-05-07 12:20:00,
2013-05-07 08:30:00,53.9,53.9,29.78,North,32767,-999.0,0.0,100,0.00,,,0.00,49,Wunderground v.1.15,2013-05-07 12:30:00,
2013-05-07 08:35:00,53.9,53.9,29.78,North,32767,-999.0,0.0,100,0.00,,,0.00,67,Wunderground v.1.15,2013-05-07 12:35:00,
2013-05-07 08:40:00,54.1,54.1,29.78,North,32767,-999.0,0.0,100,0.00,,,0.00,116,Wunderground v.1.15,2013-05-07 12:40:00,
2013-05-07 08:45:00,54.4,54.4,29.78,North,32767,-999.0,0.0,100,0.00,,,0.00,104,Wunderground v.1.15,2013-05-07 12:45:00,
2013-05-07 08:55:00,54.7,54.7,29.78,North,32767,-999.0,0.0,100,0.00,,,0.00,63,Wunderground v.1.15,2013-05-07 12:55:00,
2013-05-07 09:05:00,55.0,55.0,29.78,North,32767,-999.0,0.0,100,0.00,,,0.00,72,Wunderground v.1.15,2013-05-07 13:05:00,
2013-05-07 09:10:00,55.1,55.1,29.78,North,32767,-999.0,0.0,100,0.00,,,0.00,76,Wunderground v.1.15,2013-05-07 13:10:00,
2013-05-07 09:15:00,55.1,55.1,29.78,North,32767,-999.0,0.0,100,0.00,,,0.00,79,Wunderground v.1.15,2013-05-07 13:15:00,
2013-05-07 09:20:00,55.1,55.1,29.79,North,32767,-999.0,0.0,100,0.00,,,0.00,93,Wunderground v.1.15,2013-05-07 13:20:00,
2013-05-07 09:30:00,55.3,55.3,29.79,North,32767,-999.0,0.0,100,0.00,,,0.00,99,Wunderground v.1.15,2013-05-07 13:30:00,
2013-05-07 09:35:00,55.6,55.6,29.79,North,32767,-999.0,0.0,100,0.00,,,0.00,81,Wunderground v.1.15,2013-05-07 13:35:00,
2013-05-07 09:40:00,55.9,55.9,29.79,North,32767,-999.0,0.0,100,0.00,,,0.00,95,Wunderground v.1.15,2013-05-07 13:40:00,
2013-05-07 09:45:00,56.0,56.0,29.79,North,32767,-999.0,0.0,100,0.00,,,0.00,116,Wunderground v.1.15,2013-05-07 13:45:00,
2013-05-07 09:55:00,56.3,56.3,29.80,North,32767,-999.0,0.0,100,0.00,,,0.00,77,Wunderground v.1.15,2013-05-07 13:55:00,
2013-05-07 10:00:00,56.3,56.3,29.80,North,32767,-999.0,0.0,100,0.00,,,0.00,81,Wunderground v.1.15,2013-05-07 14:00:00,
2013-05-07 10:05:00,56.3,56.3,29.80,North,32767,-999.0,0.0,100,0.00,,,0.00,99,Wunderground v.1.15,2013-05-07 14:05:00,
2013-05-07 10:15:00,56.6,56.6,29.80,North,32767,-999.0,0.0,100,0.00,,,0.00,109,Wunderground v.1.15,2013-05-07 14:15:00,
2013-05-07 10:20:00,56.6,56.6,29.81,North,32767,-999.0,0.0,100,0.00,,,0.00,123,Wunderground v.1.15,2013-05-07 14:20:00,
2013-05-07 10:25:00,56.7,56.7,29.81,ESE,119,0.0,0.0,100,0.00,,,0.00,121,Wunderground v.1.15,2013-05-07 14:25:00,
2013-05-07 10:35:00,56.9,56.9,29.81,ESE,119,0.0,0.0,100,0.00,,,0.00,114,Wunderground v.1.15,2013-05-07 14:35:00,
2013-05-07 10:40:00,56.9,56.9,29.81,ESE,119,0.0,0.0,100,0.00,,,0.00,107,Wunderground v.1.15,2013-05-07 14:40:00,
2013-05-07 10:45:00,57.0,57.0,29.81,SW,230,0.0,0.0,100,0.00,,,0.00,167,Wunderground v.1.15,2013-05-07 14:45:00,
2013-05-07 10:55:00,57.3,57.3,29.81,SW,230,0.0,0.0,100,0.00,,,0.00,118,Wunderground v.1.15,2013-05-07 14:55:00,
2013-05-07 11:00:00,57.5,57.5,29.81,SW,230,0.0,0.0,100,0.00,,,0.00,139,Wunderground v.1.15,2013-05-07 15:00:00,
2013-05-07 11:10:00,58.0,58.0,29.81,SW,230,0.0,0.0,100,0.00,,,0.00,146,Wunderground v.1.15,2013-05-07 15:10:00,
2013-05-07 11:15:00,58.1,58.1,29.81,West,270,0.0,0.0,100,0.00,,,0.00,125,Wunderground v.1.15,2013-05-07 15:15:00,
2013-05-07 11:20:00,58.4,58.4,29.81,North,359,0.0,0.0,100,0.00,,,0.00,202,Wunderground v.1.15,2013-05-07 15:20:00,
2013-05-07 11:30:00,58.9,58.9,29.81,North,359,0.0,0.0,100,0.00,,,0.00,204,Wunderground v.1.15,2013-05-07 15:30:00,
2013-05-07 11:35:00,58.7,58.1,29.82,NW,318,0.0,0.0,98,0.00,,,0.00,125,Wunderground v.1.15,2013-05-07 15:35:00,
2013-05-07 11:45:00,58.7,57.6,29.82,North,350,0.0,0.0,96,0.00,,,0.00,208,Wunderground v.1.15,2013-05-07 15:45:00,
2013-05-07 11:55:00,59.0,57.3,29.82,North,349,0.0,0.0,94,0.00,,,0.00,211,Wunderground v.1.15,2013-05-07 15:55:00,
2013-05-07 12:00:00,59.8,58.1,29.82,North,349,0.0,0.0,94,0.00,,,0.00,185,Wunderground v.1.15,2013-05-07 16:00:00,
2013-05-07 12:05:00,59.9,57.6,29.81,North,349,0.0,0.0,92,0.00,,,0.00,171,Wunderground v.1.15,2013-05-07 16:05:00,
2013-05-07 12:10:00,60.2,57.9,29.81,North,357,0.0,0.0,92,0.00,,,0.00,202,Wunderground v.1.15,2013-05-07 16:10:00,
2013-05-07 12:15:00,60.7,57.7,29.81,North,0,0.0,0.0,90,0.00,,,0.00,882,Wunderground v.1.15,2013-05-07 16:15:00,
2013-05-07 12:25:00,62.1,58.5,29.80,NW,308,0.0,0.0,88,0.00,,,0.00,148,Wunderground v.1.15,2013-05-07 16:25:00,
2013-05-07 12:35:00,62.7,57.8,29.80,NW,312,0.0,0.0,84,0.00,,,0.00,157,Wunderground v.1.15,2013-05-07 16:35:00,
2013-05-07 12:40:00,62.9,55.9,29.80,NW,312,0.0,0.0,78,0.00,,,0.00,197,Wunderground v.1.15,2013-05-07 16:40:00,
2013-05-07 12:50:00,63.1,57.9,29.80,NW,311,0.0,0.0,83,0.00,,,0.00,241,Wunderground v.1.15,2013-05-07 16:50:00,
2013-05-07 13:00:00,63.7,57.1,29.80,WNW,291,0.0,0.0,79,0.00,,,0.00,486,Wunderground v.1.15,2013-05-07 17:00:00,
2013-05-07 13:10:00,64.7,57.0,29.80,West,270,0.0,1.0,76,0.00,,,0.00,663,Wunderground v.1.15,2013-05-07 17:10:00,
2013-05-07 13:15:00,65.5,57.4,29.80,WSW,244,0.0,1.0,75,0.00,,,0.00,980,Wunderground v.1.15,2013-05-07 17:15:00,
2013-05-07 13:25:00,66.3,53.8,29.79,North,0,0.0,0.0,64,0.00,,,0.00,113,Wunderground v.1.15,2013-05-07 17:25:00,
2013-05-07 13:30:00,66.3,55.8,29.79,North,0,0.0,0.0,69,0.00,,,0.00,146,Wunderground v.1.15,2013-05-07 17:30:00,
2013-05-07 13:35:00,66.0,55.9,29.78,NNE,16,0.0,0.0,70,0.00,,,0.00,194,Wunderground v.1.15,2013-05-07 17:35:00,
2013-05-07 13:40:00,65.8,55.7,29.78,North,1,0.0,0.0,70,0.00,,,0.00,1057,Wunderground v.1.15,2013-05-07 17:40:00,
2013-05-07 13:50:00,66.9,53.5,29.78,ENE,62,0.0,0.0,62,0.00,,,0.00,97,Wunderground v.1.15,2013-05-07 17:50:00,
2013-05-07 14:00:00,67.6,54.6,29.78,North,0,0.0,0.0,63,0.00,,,0.00,718,Wunderground v.1.15,2013-05-07 18:00:00,
2013-05-07 14:05:00,67.8,54.7,29.78,North,352,0.0,0.0,63,0.00,,,0.00,938,Wunderground v.1.15,2013-05-07 18:05:00,
2013-05-07 14:15:00,68.3,52.0,29.78,NNE,23,0.0,0.0,56,0.00,,,0.00,978,Wunderground v.1.15,2013-05-07 18:15:00,
2013-05-07 14:20:00,68.8,52.5,29.77,NNE,21,0.0,0.0,56,0.00,,,0.00,774,Wunderground v.1.15,2013-05-07 18:20:00,
2013-05-07 14:30:00,69.4,54.0,29.77,SSW,205,0.0,0.0,58,0.00,,,0.00,90,Wunderground v.1.15,2013-05-07 18:30:00,
2013-05-07 14:35:00,68.8,51.5,29.77,NE,42,0.0,0.0,54,0.00,,,0.00,165,Wunderground v.1.15,2013-05-07 18:35:00,
2013-05-07 14:40:00,68.4,51.1,29.77,NNE,13,0.0,0.0,54,0.00,,,0.00,74,Wunderground v.1.15,2013-05-07 18:40:00,
2013-05-07 14:50:00,67.3,51.5,29.76,NNW,347,0.0,0.0,57,0.00,,,0.00,113,Wunderground v.1.15,2013-05-07 18:50:00,
2013-05-07 14:55:00,66.9,53.0,29.76,WNW,291,0.0,0.0,61,0.00,,,0.00,144,Wunderground v.1.15,2013-05-07 18:55:00,
2013-05-07 15:00:00,66.9,51.6,29.76,NNW,337,0.0,0.0,58,0.00,,,0.00,120,Wunderground v.1.15,2013-05-07 19:00:00,
2013-05-07 15:10:00,67.3,51.1,29.76,North,350,0.0,0.0,56,0.00,,,0.00,169,Wunderground v.1.15,2013-05-07 19:10:00,
2013-05-07 15:15:00,67.4,53.9,29.76,NNW,337,0.0,0.0,62,0.00,,,0.00,134,Wunderground v.1.15,2013-05-07 19:15:00,
2013-05-07 15:25:00,67.4,52.1,29.76,WNW,299,0.0,0.0,58,0.00,,,0.00,130,Wunderground v.1.15,2013-05-07 19:25:00,
2013-05-07 15:35:00,67.3,52.9,29.76,West,281,0.0,0.0,60,0.00,,,0.00,107,Wunderground v.1.15,2013-05-07 19:35:00,
2013-05-07 15:45:00,67.3,50.1,29.76,SSE,147,0.0,0.0,54,0.00,,,0.00,74,Wunderground v.1.15,2013-05-07 19:45:00,
2013-05-07 15:50:00,67.4,53.0,29.75,NW,323,0.0,0.0,60,0.00,,,0.00,146,Wunderground v.1.15,2013-05-07 19:50:00,
2013-05-07 15:55:00,67.4,53.5,29.75,NW,308,0.0,0.0,61,0.00,,,0.00,107,Wunderground v.1.15,2013-05-07 19:55:00,
2013-05-07 16:05:00,67.4,52.6,29.75,NNW,336,0.0,0.0,59,0.00,,,0.00,215,Wunderground v.1.15,2013-05-07 20:05:00,
2013-05-07 16:10:00,67.4,50.2,29.75,SE,141,0.0,0.0,54,0.00,,,0.00,102,Wunderground v.1.15,2013-05-07 20:10:00,
2013-05-07 16:20:00,67.4,53.9,29.75,SE,138,0.0,0.0,62,0.00,,,0.00,49,Wunderground v.1.15,2013-05-07 20:20:00,
2013-05-07 16:30:00,67.1,53.2,29.75,NE,48,0.0,0.0,61,0.00,,,0.00,99,Wunderground v.1.15,2013-05-07 20:30:00,
2013-05-07 16:35:00,66.8,54.2,29.75,NE,48,0.0,0.0,64,0.00,,,0.00,93,Wunderground v.1.15,2013-05-07 20:35:00,
2013-05-07 16:45:00,66.8,51.5,29.75,NNW,330,0.0,0.0,58,0.00,,,0.00,33,Wunderground v.1.15,2013-05-07 20:45:00,
2013-05-07 16:50:00,66.6,53.2,29.75,NNW,330,0.0,0.0,62,0.00,,,0.00,77,Wunderground v.1.15,2013-05-07 20:50:00,
2013-05-07 16:55:00,66.3,52.9,29.75,North,32767,-999.0,0.0,62,0.00,,,0.00,28,Wunderground v.1.15,2013-05-07 20:55:00,
2013-05-07 17:00:00,66.1,53.6,29.75,North,32767,-999.0,0.0,64,0.00,,,0.00,40,Wunderground v.1.15,2013-05-07 21:00:00,
2013-05-07 17:10:00,65.6,53.9,29.75,North,32767,-999.0,0.0,66,0.00,,,0.00,70,Wunderground v.1.15,2013-05-07 21:10:00,
2013-05-07 17:15:00,65.5,54.7,29.75,North,32767,-999.0,0.0,68,0.00,,,0.00,69,Wunderground v.1.15,2013-05-07 21:15:00,
2013-05-07 17:25:00,65.0,55.4,29.76,North,32767,-999.0,0.0,71,0.00,,,0.00,77,Wunderground v.1.15,2013-05-07 21:25:00,
2013-05-07 17:30:00,64.8,55.2,29.76,North,32767,-999.0,0.0,71,0.00,,,0.00,44,Wunderground v.1.15,2013-05-07 21:30:00,
2013-05-07 17:40:00,64.2,55.4,29.77,North,32767,-999.0,0.0,73,0.00,,,0.00,40,Wunderground v.1.15,2013-05-07 21:40:00,
2013-05-07 17:50:00,63.2,55.5,29.77,North,32767,-999.0,0.0,76,0.00,,,0.00,37,Wunderground v.1.15,2013-05-07 21:50:00,
2013-05-07 18:00:00,62.6,54.9,29.77,North,32767,-999.0,0.0,76,0.00,,,0.00,72,Wunderground v.1.15,2013-05-07 22:00:00,
2013-05-07 18:10:00,62.4,55.8,29.77,North,32767,-999.0,0.0,79,0.00,,,0.00,39,Wunderground v.1.15,2013-05-07 22:10:00,
2013-05-07 18:20:00,62.1,55.2,29.78,North,32767,-999.0,0.0,78,0.00,,,0.00,28,Wunderground v.1.15,2013-05-07 22:20:00,
2013-05-07 18:25:00,62.0,55.1,29.78,North,32767,-999.0,0.0,78,0.00,,,0.00,28,Wunderground v.1.15,2013-05-07 22:25:00,
2013-05-07 18:30:00,62.0,55.1,29.78,North,32767,-999.0,0.0,78,0.00,,,0.00,21,Wunderground v.1.15,2013-05-07 22:30:00,
2013-05-07 18:40:00,61.8,55.2,29.78,North,32767,-999.0,0.0,79,0.00,,,0.00,12,Wunderground v.1.15,2013-05-07 22:40:00,
2013-05-07 18:45:00,61.5,54.6,29.78,North,32767,-999.0,0.0,78,0.00,,,0.00,9,Wunderground v.1.15,2013-05-07 22:45:00,
2013-05-07 18:55:00,61.2,55.0,29.78,North,32767,-999.0,0.0,80,0.00,,,0.00,9,Wunderground v.1.15,2013-05-07 22:55:00,
2013-05-07 19:00:00,60.7,54.5,29.78,North,32767,-999.0,0.0,80,0.00,,,0.00,11,Wunderground v.1.15,2013-05-07 23:00:00,
2013-05-07 19:10:00,60.1,54.2,29.78,North,32767,-999.0,0.0,81,0.00,,,0.00,28,Wunderground v.1.15,2013-05-07 23:10:00,
2013-05-07 19:20:00,59.9,55.1,29.78,North,32767,-999.0,0.0,84,0.00,,,0.00,35,Wunderground v.1.15,2013-05-07 23:20:00,
2013-05-07 19:25:00,59.8,55.0,29.78,North,32767,-999.0,0.0,84,0.00,,,0.00,28,Wunderground v.1.15,2013-05-07 23:25:00,
2013-05-07 19:35:00,59.8,55.0,29.78,North,32767,-999.0,0.0,84,0.00,,,0.00,9,Wunderground v.1.15,2013-05-07 23:35:00,
2013-05-07 19:40:00,59.6,55.1,29.78,North,32767,-999.0,0.0,85,0.00,,,0.00,0,Wunderground v.1.15,2013-05-07 23:40:00,
2013-05-07 19:50:00,59.3,54.8,29.78,North,32767,-999.0,0.0,85,0.00,,,0.00,0,Wunderground v.1.15,2013-05-07 23:50:00,
2013-05-07 19:55:00,59.0,54.5,29.78,North,32767,-999.0,0.0,85,0.00,,,0.00,0,Wunderground v.1.15,2013-05-07 23:55:00,
2013-05-07 20:00:00,58.7,53.9,29.78,North,32767,-999.0,0.0,84,0.00,,,0.00,0,Wunderground v.1.15,2013-05-08 00:00:00,
2013-05-07 20:10:00,58.1,53.9,29.79,North,32767,-999.0,0.0,86,0.00,,,0.00,0,Wunderground v.1.15,2013-05-08 00:10:00,
2013-05-07 20:15:00,58.0,53.5,29.79,North,32767,-999.0,0.0,85,0.00,,,0.00,0,Wunderground v.1.15,2013-05-08 00:15:00,
2013-05-07 20:25:00,57.5,53.3,29.79,North,32767,-999.0,0.0,86,0.00,,,0.00,0,Wunderground v.1.15,2013-05-08 00:25:00,
2013-05-07 20:35:00,57.0,52.5,29.80,North,32767,-999.0,0.0,85,0.00,,,0.00,0,Wunderground v.1.15,2013-05-08 00:35:00,
2013-05-07 20:40:00,56.9,52.8,29.80,North,32767,-999.0,0.0,86,0.00,,,0.00,0,Wunderground v.1.15,2013-05-08 00:40:00,
2013-05-07 20:45:00,56.7,52.6,29.80,North,32767,-999.0,0.0,86,0.00,,,0.00,0,Wunderground v.1.15,2013-05-08 00:45:00,
2013-05-07 20:55:00,56.7,53.2,29.80,North,32767,-999.0,0.0,88,0.00,,,0.00,0,Wunderground v.1.15,2013-05-08 00:55:00,
2013-05-07 21:05:00,56.5,53.0,29.81,North,32767,-999.0,0.0,88,0.00,,,0.00,0,Wunderground v.1.15,2013-05-08 01:05:00,
2013-05-07 21:15:00,56.0,52.5,29.81,North,32767,-999.0,0.0,88,0.00,,,0.00,0,Wunderground v.1.15,2013-05-08 01:15:00,
2013-05-07 21:20:00,55.9,52.4,29.82,North,32767,-999.0,0.0,88,0.00,,,0.00,0,Wunderground v.1.15,2013-05-08 01:20:00,
2013-05-07 21:30:00,55.7,52.5,29.82,North,32767,-999.0,0.0,89,0.00,,,0.00,0,Wunderground v.1.15,2013-05-08 01:30:00,
2013-05-07 21:40:00,55.7,52.5,29.82,North,32767,-999.0,0.0,89,0.00,,,0.00,0,Wunderground v.1.15,2013-05-08 01:40:00,
2013-05-07 21:50:00,55.6,52.4,29.83,North,32767,-999.0,0.0,89,0.00,,,0.00,0,Wunderground v.1.15,2013-05-08 01:50:00,
2013-05-07 22:00:00,55.6,52.4,29.83,North,32767,-999.0,0.0,89,0.00,,,0.00,0,Wunderground v.1.15,2013-05-08 02:00:00,
2013-05-07 22:10:00,55.4,52.5,29.83,North,32767,-999.0,0.0,90,0.00,,,0.00,0,Wunderground v.1.15,2013-05-08 02:10:00,
2013-05-07 22:20:00,55.4,52.5,29.83,North,32767,-999.0,0.0,90,0.00,,,0.00,0,Wunderground v.1.15,2013-05-08 02:20:00,
2013-05-07 22:25:00,55.4,52.8,29.83,North,32767,-999.0,0.0,91,0.00,,,0.00,0,Wunderground v.1.15,2013-05-08 02:25:00,
2013-05-07 22:35:00,55.4,52.5,29.83,North,32767,-999.0,0.0,90,0.00,,,0.00,0,Wunderground v.1.15,2013-05-08 02:35:00,
2013-05-07 22:45:00,55.3,52.7,29.83,North,32767,-999.0,0.0,91,0.00,,,0.00,0,Wunderground v.1.15,2013-05-08 02:45:00,
2013-05-07 22:50:00,55.1,52.5,29.84,North,32767,-999.0,0.0,91,0.00,,,0.00,0,Wunderground v.1.15,2013-05-08 02:50:00,
2013-05-07 23:00:00,55.0,52.7,29.84,North,32767,-999.0,0.0,92,0.00,,,0.00,0,Wunderground v.1.15,2013-05-08 03:00:00,
2013-05-07 23:05:00,55.0,52.7,29.83,North,32767,-999.0,0.0,92,0.00,,,0.00,0,Wunderground v.1.15,2013-05-08 03:05:00,
2013-05-07 23:10:00,54.8,52.5,29.83,North,32767,-999.0,0.0,92,0.00,,,0.00,0,Wunderground v.1.15,2013-05-08 03:10:00,
2013-05-07 23:20:00,54.8,52.5,29.83,North,32767,-999.0,0.0,92,0.00,,,0.00,0,Wunderground v.1.15,2013-05-08 03:20:00,
2013-05-07 23:25:00,55.0,52.7,29.83,North,32767,-999.0,0.0,92,0.00,,,0.00,0,Wunderground v.1.15,2013-05-08 03:25:00,
2013-05-07 23:35:00,55.1,53.1,29.84,North,32767,-999.0,0.0,93,0.00,,,0.00,0,Wunderground v.1.15,2013-05-08 03:35:00,
2013-05-07 23:45:00,55.4,53.4,29.84,North,32767,-999.0,0.0,93,0.00,,,0.00,0,Wunderground v.1.15,2013-05-08 03:45:00,
2013-05-07 23:50:00,55.3,53.0,29.84,North,32767,-999.0,0.0,92,0.00,,,0.00,0,Wunderground v.1.15,2013-05-08 03:50:00,